This is the latest recevied weather packets stored in our database for station/object WX5RP. If no packets are shown the sender has not sent any weather packets the latest 10 day(s).
| Time | Temp. | Humidity | Pressure | Rain* | Wind** | Luminosity | Snow |
|---|---|---|---|---|---|---|---|
| 1788012016 | 7.22° C | 85% | 1018.8 hPa | 0 mm | - | 45 W/m² | - |
| 1788011417 | 7.22° C | 86% | 1018.8 hPa | 0 mm | - | 24 W/m² | - |
| 1788010816 | 6.67° C | 86% | 1018.9 hPa | 0 mm | - | 12 W/m² | - |
| 1788010216 | 6.67° C | 86% | 1018.9 hPa | 0 mm | - | 6 W/m² | - |
| 1788009616 | 6.67° C | 87% | 1019.1 hPa | 0 mm | - | 0 W/m² | - |
| 1788009016 | 6.67° C | 86% | 1018.3 hPa | 0 mm | - | 0 W/m² | - |
| 1788008416 | 6.11° C | 87% | 1018.3 hPa | 0 mm | - | 0 W/m² | - |
| 1788007816 | 5.56° C | 87% | 1018.6 hPa | 0 mm | - | 0 W/m² | - |
| 1788007216 | 5° C | 86% | 1018.3 hPa | 0 mm | - | 0 W/m² | - |
| 1788006616 | 5° C | 86% | 1018.6 hPa | 0 mm | - | 0 W/m² | - |
| 1788006016 | 5° C | 86% | 1018.7 hPa | 0 mm | - | 0 W/m² | - |
| 1788005416 | 5.56° C | 86% | 1018.2 hPa | 0 mm | - | 0 W/m² | - |
| 1788004816 | 5.56° C | 86% | 1018.5 hPa | 0 mm | - | 0 W/m² | - |
| 1788004217 | 5.56° C | 86% | 1018.2 hPa | 0 mm | - | 0 W/m² | - |
| 1788003616 | 5.56° C | 86% | 1017.9 hPa | 0 mm | - | 0 W/m² | - |
| 1788003016 | 5.56° C | 86% | 1017.9 hPa | 0 mm | - | 0 W/m² | - |
| 1788002416 | 5.56° C | 85% | 1017.8 hPa | 0 mm | - | 0 W/m² | - |
| 1788001816 | 5.56° C | 85% | 1018.1 hPa | 0 mm | - | 0 W/m² | - |
| 1788001215 | 5.56° C | 85% | 1018.1 hPa | 0 mm | - | 0 W/m² | - |
| 1788000616 | 6.11° C | 84% | 1017.9 hPa | 0 mm | - | 0 W/m² | - |
| 1788000016 | 6.11° C | 84% | 1018 hPa | 0 mm | - | 0 W/m² | - |
| 1787999415 | 6.11° C | 84% | 1017.7 hPa | 0 mm | - | 0 W/m² | - |
| 1787998816 | 6.67° C | 83% | 1017.9 hPa | 0 mm | - | 0 W/m² | - |
| 1787998216 | 6.67° C | 83% | 1017.9 hPa | 0 mm | - | 0 W/m² | - |
| 1787997615 | 7.78° C | 82% | 1018.2 hPa | 0 mm | - | 0 W/m² | - |
* Rain latest hour (hover to see other rain measurements)
** Current wind speed in m/s (hover to see current wind gust speed)